[[{"header":{"parameterUnit":"m.s-1","parameterCategory":1,"la1":30.2991,"la2":30.254,"lo1":-89.0895,"lo2":-89.0444,"dy":0.0017,"dx":0.0017,"nx":28,"ny":28,"refTime":"2025-01-08T03:00:00:Z","depth":0,"parameterNumber":2,"parameterNumberName":"U-component_of_WINDS"},"data":[0,0,0,0,0,0,0,0,0,0,0,0,0,0,0,0,0,0,0,0,0,0,0,0,0,0,0,0,0,0,0,0,0,0,0,0,0,0,0,0,0,0,0,0,0,0,0,0,0,0,0,0,0,0,0,0,0,0,0.474,0.4739,0,0.4729,0.4729,0.4729,0.4725,0.4725,0.4725,0.4726,0.4714,0.4714,0.4713,0,0,0,0,0,0,0,0,0,0,0,0,0,0.4755,0.4755,0.474,0.4739,0.4739,0.4729,0.4729,0.4729,0.4725,0.4725,0.4726,0.4726,0.4714,0.4714,0.4713,0,0,0,0,0,0,0,0,0,0,0,0,0,0.4747,0.4755,0.474,0.4736,0.4736,0.4729,0.4729,0.4729,0.4725,0.4725,0.4726,0.4726,0.4714,0.4714,0.4713,0.4709,0,0,0.4712,0.4711,0,0,0,0,0,0,0,0,0.4748,0.4747,0.4737,0.4737,0.4736,0.4729,0.4731,0.4722,0.4725,0.4729,0.4726,0.4726,0.4719,0.4718,0.4716,0.4708,0.4708,0.4712,0.4711,0.4711,0.4711,0,0,0,0,0,0,0,0.4748,0.4747,0.4736,0.4737,0.4736,0.4735,0.4734,0.4729,0.4724,0.4729,0.4729,0.4728,0.4719,0.4716,0.4716,0.4708,0.4712,0.4711,0.4711,0.4711,0.4697,0.4697,0,0,0,0,0,0,0.4749,0.4748,0.4736,0.4735,0.4742,0.4735,0.4734,0.4731,0.4724,0.4723,0.4728,0.4728,0.4717,0.4716,0.4715,0.471,0.4711,0.4711,0.471,0.4697,0.4697,0.4697,0,0,0,0,0,0,0.475,0.4748,0.4736,0.4741,0.474,0.4735,0.4732,0.4731,0.4729,0.4723,0.4722,0.4726,0.4717,0.4716,0.4711,0.471,0.471,0.471,0.4697,0.4697,0.4697,0.47,0,0,0,0,0,0,0.475,0.4749,0.4747,0.4741,0.4739,0.4732,0.4732,0.4731,0.4728,0.4728,0.4721,0.472,0.4717,0.4712,0.471,0.4709,0.4709,0.4697,0.4697,0.4697,0.47,0.47,0.47,0,0,0,0,0,0.4751,0.4748,0.4747,0.4745,0.4737,0.4732,0.4731,0.4728,0.4728,0.4726,0.4723,0.4721,0.471,0.4711,0.471,0.4708,0.4697,0.4697,0.4697,0.47,0.47,0.47,0,0,0,0,0,0,0.4753,0.4747,0.4746,0.4741,0.4737,0.4732,0.4729,0.4728,0.4723,0.4723,0.4719,0.4718,0.4713,0.471,0.4711,0.4704,0.4704,0.4703,0.4706,0.4706,0.4706,0.4707,0.4709,0,0,0,0,0,0.4752,0.4749,0.4744,0.474,0.4738,0.4734,0.4732,0.473,0.4725,0.4724,0.472,0.4715,0.4711,0.4709,0.4704,0.4699,0.4698,0.4698,0.4698,0.4698,0.4697,0.4695,0.4695,0.4697,0.4697,0.4697,0,0,0.4752,0.4748,0.4746,0.474,0.4737,0.4734,0.4733,0.4729,0.4726,0.4723,0.4718,0.4715,0.471,0.4705,0.4703,0.4703,0.4697,0.4698,0.4698,0.4697,0.4695,0.4695,0.4695,0.4697,0.4697,0.4697,0,0,0.4749,0.4746,0.4743,0.474,0.4735,0.4733,0.4732,0.4727,0.4725,0.472,0.4718,0.4715,0.4708,0.4705,0.4702,0.4699,0.4697,0.4698,0.4698,0.4696,0.4696,0.4696,0.4695,0.4695,0.4698,0.4698,0.4698,0,0.4749,0.4744,0.4741,0.4737,0.4735,0.4733,0.473,0.4727,0.4721,0.4719,0.4719,0.4711,0.4707,0.4702,0.4701,0.4699,0.4698,0.4698,0.4696,0.4696,0.4696,0.4695,0.4695,0.4698,0.4698,0.4698,0.4698,0,0.4744,0.474,0.4738,0.4733,0.4731,0.4727,0.4724,0.4722,0.472,0.4718,0.4713,0.4709,0.4704,0.4703,0.4701,0.4698,0.4698,0.4697,0.4696,0.4696,0.4695,0.4695,0.4698,0.4698,0.4698,0.4698,0,0,0.4741,0.4736,0.4735,0.4733,0.4728,0.4726,0.4722,0.4718,0.4716,0.4713,0.471,0.4705,0.4704,0.4701,0.4699,0.4697,0.4696,0.4697,0.4697,0.4697,0.4692,0.4693,0.4693,0.4695,0.4695,0.4695,0.4693,0,0.4737,0.4732,0.473,0.4725,0.4722,0.472,0.4718,0.4715,0.4712,0.471,0.4707,0.4703,0.4703,0.4701,0.47,0.4697,0.4695,0.4697,0.4692,0.4692,0.4693,0.4692,0.4693,0.4691,0.4693,0.4693,0.4693,0,0.4732,0.473,0.4725,0.4722,0.472,0.4718,0.4714,0.4712,0.4708,0.4707,0.4704,0.4703,0.4699,0.47,0.4695,0.4696,0.4694,0.4693,0.4693,0.4692,0.4692,0.4691,0.469,0.469,0.4692,0.4692,0.4692,0,0.4731,0.4726,0.4723,0.4721,0.4717,0.4715,0.4714,0.4711,0.4709,0.4706,0.4704,0.4701,0.4699,0.4696,0.4694,0.4694,0.469,0.4689,0.4688,0.4688,0.4687,0.4687,0.4685,0.4686,0.4686,0.4686,0.4686,0,0.4727,0.4724,0.4722,0.472,0.4717,0.4715,0.4712,0.471,0.4707,0.4705,0.4703,0.4701,0.4698,0.4695,0.4693,0.469,0.4689,0.4688,0.4687,0.4688,0.4688,0.4687,0.4687,0.4686,0.4686,0.4686,0.4686,0,0.4725,0.4723,0.4719,0.4716,0.4716,0.4714,0.4711,0.4709,0.4707,0.4704,0.4703,0.47,0.4697,0.4695,0.4691,0.4689,0.4686,0.4685,0.4687,0.4687,0.4686,0.4686,0.4683,0.4683,0.4684,0.4684,0.4684,0,0.4723,0.472,0.4718,0.4716,0.4715,0.4712,0.471,0.4709,0.4707,0.4704,0.4702,0.4699,0.4696,0.4692,0.4689,0.4686,0.4685,0.4685,0.4685,0.4686,0.4685,0.4686,0.4685,0.4684,0.4684,0.4684,0.4684,0,0.4719,0.4718,0.4716,0.4714,0.4712,0.471,0.4707,0.4706,0.4704,0.4702,0.4699,0.4698,0.4694,0.4691,0.4688,0.4686,0.4685,0.4684,0.4684,0.4684,0.4686,0.4685,0.4687,0.4684,0.4684,0.4684,0.4684,0.4684,0.4716,0.4715,0.4713,0.471,0.4709,0.4707,0.4705,0.4704,0.4701,0.4699,0.4698,0.4695,0.4692,0.4688,0.4687,0.4684,0.4684,0.4684,0.4683,0.4683,0.4683,0.4686,0.4684,0.4684,0.4684,0.4684,0.4684,0,0.4712,0.4711,0.4709,0.4707,0.4705,0.4705,0.4703,0.4701,0.4699,0.4697,0.4695,0.4692,0.469,0.4687,0.4685,0.4683,0.4683,0.4683,0.4683,0.4682,0.4684,0.4684,0.4683,0.4683,0.4683,0.4683,0.4683,0.4683,0.471,0.4708,0.4707,0.4704,0.4703,0.47,0.4699,0.4698,0.4696,0.4693,0.4691,0.469,0.4688,0.4686,0.4683,0.4683,0.4682,0.4682,0.4681,0.4682,0.4682,0.4682,0.4683,0.4682,0.4682,0.468,0.468,0.468]},{"header":{"parameterUnit":"m.s-1","parameterCategory":1,"la1":30.2991,"la2":30.254,"lo1":-89.0895,"lo2":-89.0444,"dy":0.0017,"dx":0.0017,"nx":28,"ny":28,"refTime":"2025-01-08T03:00:00:Z","depth":0,"parameterNumber":3,"parameterNumberName":"V-component_of_WINDS"},"data":[0,0,0,0,0,0,0,0,0,0,0,0,0,0,0,0,0,0,0,0,0,0,0,0,0,0,0,0,0,0,0,0,0,0,0,0,0,0,0,0,0,0,0,0,0,0,0,0,0,0,0,0,0,0,0,0,0,0,-4.0709,-4.0709,0,-4.076,-4.076,-4.0761,-4.0751,-4.075,-4.0749,-4.0748,-4.0796,-4.0798,-4.08,0,0,0,0,0,0,0,0,0,0,0,0,0,-4.0599,-4.0601,-4.0709,-4.0709,-4.071,-4.076,-4.076,-4.0761,-4.0751,-4.075,-4.0749,-4.0748,-4.0795,-4.0798,-4.08,0,0,0,0,0,0,0,0,0,0,0,0,0,-4.0648,-4.0602,-4.0709,-4.0711,-4.0712,-4.076,-4.076,-4.0761,-4.0751,-4.075,-4.0749,-4.0747,-4.0794,-4.0797,-4.08,-4.0847,0,0,-4.081,-4.0812,0,0,0,0,0,0,0,0,-4.0645,-4.0652,-4.071,-4.0711,-4.0712,-4.0748,-4.0739,-4.079,-4.0752,-4.0736,-4.0748,-4.0747,-4.0781,-4.0785,-4.0797,-4.085,-4.0852,-4.081,-4.0812,-4.0814,-4.0815,0,0,0,0,0,0,0,-4.0642,-4.065,-4.0729,-4.0711,-4.0712,-4.0709,-4.0714,-4.0749,-4.0765,-4.0737,-4.0737,-4.0743,-4.0781,-4.0794,-4.0798,-4.0852,-4.081,-4.0813,-4.0815,-4.0816,-4.0947,-4.0949,0,0,0,0,0,0,-4.0638,-4.0647,-4.0727,-4.073,-4.0675,-4.0712,-4.0718,-4.0738,-4.0765,-4.0768,-4.0744,-4.0743,-4.0789,-4.0795,-4.08,-4.0858,-4.0814,-4.0817,-4.0818,-4.0946,-4.0947,-4.0949,0,0,0,0,0,0,-4.0636,-4.0645,-4.0725,-4.0689,-4.0699,-4.0715,-4.0737,-4.0739,-4.0753,-4.077,-4.0773,-4.0755,-4.0789,-4.0795,-4.0836,-4.0859,-4.0818,-4.0821,-4.0944,-4.0946,-4.0948,-4.0973,0,0,0,0,0,0,-4.0633,-4.0645,-4.0663,-4.0689,-4.0701,-4.0762,-4.0739,-4.0741,-4.0759,-4.0757,-4.0781,-4.0784,-4.0788,-4.0832,-4.0839,-4.0863,-4.0823,-4.0942,-4.0945,-4.0948,-4.097,-4.0976,-4.0981,0,0,0,0,0,-4.0629,-4.0667,-4.0664,-4.0674,-4.0725,-4.0763,-4.0769,-4.0775,-4.0761,-4.0779,-4.0791,-4.0783,-4.0855,-4.0836,-4.0845,-4.0869,-4.094,-4.0944,-4.0947,-4.0968,-4.0975,-4.0981,0,0,0,0,0,0,-4.0641,-4.067,-4.0668,-4.0715,-4.0737,-4.0761,-4.0785,-4.0782,-4.0807,-4.0804,-4.0808,-4.0814,-4.0856,-4.0866,-4.0844,-4.0917,-4.0896,-4.0901,-4.0908,-4.0915,-4.092,-4.0917,-4.0826,0,0,0,0,0,-4.065,-4.068,-4.0703,-4.0743,-4.0754,-4.0768,-4.0785,-4.0788,-4.081,-4.0818,-4.0832,-4.0853,-4.088,-4.0898,-4.0924,-4.0972,-4.0977,-4.0993,-4.0998,-4.1003,-4.1007,-4.1034,-4.1042,-4.0961,-4.0961,-4.0961,0,0,-4.0667,-4.0687,-4.0705,-4.0746,-4.0763,-4.0794,-4.0776,-4.0808,-4.0831,-4.0822,-4.0863,-4.0874,-4.0897,-4.0942,-4.0962,-4.0952,-4.1031,-4.1007,-4.101,-4.1013,-4.1039,-4.1046,-4.1053,-4.0963,-4.0963,-4.0962,0,0,-4.0714,-4.0732,-4.0768,-4.0787,-4.0814,-4.0823,-4.0832,-4.0857,-4.0865,-4.0906,-4.0901,-4.0927,-4.0974,-4.0991,-4.1006,-4.1062,-4.1056,-4.107,-4.1098,-4.1124,-4.1131,-4.1136,-4.1157,-4.1164,-4.1075,-4.1075,-4.1075,0,-4.0732,-4.0779,-4.0787,-4.0821,-4.0839,-4.0836,-4.0872,-4.0888,-4.0922,-4.0934,-4.0923,-4.0983,-4.0998,-4.1048,-4.1062,-4.1073,-4.1083,-4.1067,-4.1129,-4.1135,-4.1141,-4.116,-4.1168,-4.1076,-4.1076,-4.1076,-4.1076,0,-4.08,-4.0833,-4.0859,-4.0894,-4.0915,-4.095,-4.0962,-4.0982,-4.0983,-4.0993,-4.1035,-4.1054,-4.1084,-4.1096,-4.1096,-4.1146,-4.1139,-4.1128,-4.1107,-4.115,-4.1169,-4.1176,-4.1079,-4.1078,-4.1078,-4.1077,0,0,-4.0855,-4.0896,-4.0906,-4.0922,-4.0953,-4.0978,-4.1012,-4.1044,-4.1062,-4.1085,-4.1114,-4.1155,-4.1147,-4.1163,-4.1166,-4.1189,-4.1234,-4.1176,-4.1176,-4.1186,-4.129,-4.1298,-4.1307,-4.123,-4.1231,-4.1233,-4.1289,0,-4.0906,-4.097,-4.0978,-4.1034,-4.1065,-4.1063,-4.1093,-4.1115,-4.1125,-4.1152,-4.1163,-4.1193,-4.1178,-4.1189,-4.1211,-4.1223,-4.1255,-4.1219,-4.1257,-4.1258,-4.1252,-4.1317,-4.1325,-4.1377,-4.1296,-4.1297,-4.1298,0,-4.0974,-4.1002,-4.1062,-4.109,-4.1103,-4.1131,-4.1161,-4.1187,-4.1212,-4.1218,-4.1238,-4.1238,-4.1273,-4.1251,-4.13,-4.1276,-4.1291,-4.13,-4.1302,-4.1306,-4.1281,-4.1323,-4.1394,-4.1402,-4.1309,-4.1309,-4.1308,0,-4.101,-4.1062,-4.1105,-4.1119,-4.1153,-4.1172,-4.1187,-4.121,-4.123,-4.1256,-4.1268,-4.1298,-4.1314,-4.1336,-4.1344,-4.1327,-4.1392,-4.1371,-4.1398,-4.1398,-4.1412,-4.1411,-4.1487,-4.1421,-4.1421,-4.1421,-4.1421,0,-4.1066,-4.1102,-4.1122,-4.1148,-4.119,-4.1199,-4.1239,-4.1252,-4.1273,-4.1302,-4.1301,-4.1327,-4.1336,-4.1363,-4.1369,-4.1409,-4.1416,-4.1422,-4.1423,-4.1422,-4.1421,-4.1432,-4.1429,-4.1423,-4.1423,-4.1422,-4.1422,0,-4.1112,-4.1127,-4.1174,-4.1203,-4.1211,-4.124,-4.1264,-4.1289,-4.1301,-4.1337,-4.1345,-4.1362,-4.1395,-4.1405,-4.1444,-4.1448,-4.1495,-4.1492,-4.1487,-4.1488,-4.1515,-4.1513,-4.1601,-4.1613,-4.1539,-4.154,-4.154,0,-4.1147,-4.1176,-4.1209,-4.1229,-4.1245,-4.1277,-4.1298,-4.1308,-4.1329,-4.136,-4.1382,-4.1414,-4.1441,-4.1494,-4.1508,-4.1538,-4.1537,-4.1566,-4.1541,-4.154,-4.1538,-4.1537,-4.154,-4.157,-4.1571,-4.1572,-4.1572,0,-4.1208,-4.1215,-4.1245,-4.1279,-4.1304,-4.1331,-4.1356,-4.1372,-4.1386,-4.1409,-4.1444,-4.1465,-4.1506,-4.1539,-4.157,-4.1583,-4.158,-4.158,-4.1588,-4.1588,-4.1584,-4.1587,-4.1501,-4.1578,-4.1577,-4.1577,-4.1577,-4.1576,-4.1251,-4.1277,-4.1305,-4.1339,-4.136,-4.1384,-4.141,-4.1426,-4.1456,-4.1491,-4.1495,-4.1532,-4.1557,-4.1598,-4.1614,-4.1643,-4.1634,-4.1646,-4.1649,-4.1651,-4.1654,-4.158,-4.1648,-4.1648,-4.1648,-4.1648,-4.1647,0,-4.1312,-4.1331,-4.1363,-4.14,-4.1427,-4.1424,-4.1452,-4.1475,-4.1509,-4.1533,-4.156,-4.1601,-4.1633,-4.1651,-4.1683,-4.1703,-4.1702,-4.1711,-4.171,-4.1713,-4.1659,-4.165,-4.1711,-4.1711,-4.1711,-4.1711,-4.1711,-4.1711,-4.1348,-4.1392,-4.1403,-4.1457,-4.1475,-4.1514,-4.1531,-4.1553,-4.1572,-4.1618,-4.1646,-4.1659,-4.168,-4.1714,-4.1744,-4.1748,-4.176,-4.177,-4.1773,-4.1723,-4.1716,-4.171,-4.1701,-4.1772,-4.1772,-4.1824,-4.1825,-4.1825]}]]